Onweer radar more information blitzortung!


Regen radar more information rain snow radar


Meteo Sauwerd

Weerstation Alkmaar Centrum

Weerstation Luyksgestel

Website Noardburgum

Weerstation Noordbergum



Het weer levert geen direct gevaar op.    Er zijn geen waarschuwingen afgegeven.

Select another period ( hide this area )

Eenheden Periode Custom range Directly to
Metrisch Engels Beide
Dagelijkse Wekelijkse Maandelijkse Jaarlijkse
use both date-selectors for a custom range
previous Dag
With this date

WeatherUnderground graphs for this period ( click here )


Dagelijkse Samenvatting Dinsdag 18 juni 2019
Tijd Temp. ( °C ) Dew pt. ( °C ) Wind ( km/h ) van Windvlaag ( km/h ) Luchtdruk ( hPa ) Humid.( % ) Rainrate ( cm ) Zonneschijn ( W/m2 )
Hoog26,4 19,0 16,3 Noorden ( 252/761 ) 19,3 1016,8 91 - 865
Gemiddeld20,1 15,3 3,1 Windstil #96/249 6,1 1014,5 75 - 420 #187/249
Laag13,9 11,9 -   0,0 1012,4 57 -  
Dagelijkse Tabular details for Dinsdag 18 juni 2019
Tijd Temp. ( °C ) Dew pt. ( °C ) Wind ( km/h ) van Windvlaag ( km/h ) Luchtdruk ( hPa ) Humid.( % ) Rainrate ( cm ) Zonneschijn ( W/m2 )
00:04 16,9 13,6   Windstil   1016,8 81 - -
00:09 16,8 13,5   Windstil   1016,8 81 - -
00:14 16,7 13,4   Windstil   1016,8 81 - -
00:19 16,4 13,3   Windstil   1016,8 82 - -
00:24 16,3 13,2   Windstil   1016,8 82 - -
00:29 16,2 13,3   Windstil   1016,5 83 - -
00:34 16,1 13,2   Windstil   1016,5 83 - -
00:39 16,0 13,1   Windstil   1016,5 83 - -
00:44 16,0 13,3   Windstil   1016,5 84 - -
00:49 16,0 13,3   Windstil   1016,5 84 - -
00:54 15,9 13,2   Windstil   1016,5 84 - -
00:59 15,8 13,1   Windstil   1016,5 84 - -
01:04 15,7 13,0   Windstil   1016,5 84 - -
01:09 15,7 13,2   Windstil   1016,5 85 - -
01:14 15,6 13,1   Windstil   1016,5 85 - -
01:19 15,6 13,1   Windstil   1016,5 85 - -
01:24 15,5 13,0   Windstil   1016,1 85 - -
01:29 15,6 13,1   Windstil   1016,1 85 - -
01:34 15,5 13,0   Windstil   1016,1 85 - -
01:39 15,6 13,1   Windstil   1016,1 85 - -
01:44 15,5 13,0   Windstil   1016,1 85 - -
01:49 15,4 12,9   Windstil   1016,1 85 - -
01:54 15,4 13,1   Windstil   1016,1 86 - -
01:59 15,3 13,0   Windstil   1016,1 86 - -
02:04 15,3 13,0   Windstil   1016,1 86 - -
02:09 15,3 13,0   Windstil   1016,1 86 - -
02:14 15,3 13,0   Windstil   1016,1 86 - -
02:19 15,2 12,9   Windstil   1016,1 86 - -
02:24 15,2 12,9 1,4 Noorden 3,2 1016,1 86 - -
02:29 15,2 12,9 3,2 Noorden 3,2 1015,8 86 - -
02:34 15,2 12,9 1,4 Noorden 3,2 1015,8 86 - -
02:39 15,2 12,9 1,4 Noorden 1,6 1015,8 86 - -
02:44 15,3 13,0   Windstil   1015,8 86 - -
02:49 15,2 12,9   Windstil   1015,8 86 - -
02:54 15,1 12,8   Windstil 1,6 1015,8 86 - -
02:59 15,1 12,8   Windstil   1015,8 86 - -
03:04 15,1 12,8   Windstil 1,6 1015,8 86 - -
03:09 15,0 12,7   Windstil 1,6 1015,8 86 - -
03:14 14,8 12,5   Windstil   1015,8 86 - -
03:19 14,8 12,5   Windstil   1015,8 86 - -
03:24 14,7 12,4   Windstil   1015,8 86 - -
03:29 14,6 12,3   Windstil   1015,8 86 - -
03:34 14,6 12,5   Windstil   1015,5 87 - -
03:39 14,6 12,5   Windstil   1015,5 87 - -
03:44 14,5 12,4   Windstil   1015,8 87 - -
03:49 14,4 12,3   Windstil   1015,5 87 - -
03:54 14,4 12,3   Windstil   1015,5 87 - -
03:59 14,3 12,2   Windstil   1015,5 87 - -
04:04 14,2 12,1   Windstil   1015,5 87 - -
04:09 14,2 12,1   Windstil   1015,5 87 - -
04:14 14,2 12,1   Windstil   1015,5 87 - -
04:19 14,2 12,1   Windstil   1015,5 87 - -
04:24 14,2 12,2   Windstil   1015,5 88 - -
04:29 14,1 12,1   Windstil   1015,1 88 - -
04:34 14,1 12,1   Windstil   1015,1 88 - -
04:39 14,2 12,2   Windstil   1015,1 88 - -
04:44 14,1 12,1   Windstil   1015,1 88 - -
04:49 14,2 12,2 1,4 Noorden 3,2 1015,1 88 - -
04:54 14,1 12,1   Windstil   1015,1 88 - -
04:59 14,1 12,1   Windstil   1015,1 88 - -
05:04 14,1 12,3   Windstil   1015,1 89 - -
05:09 14,1 12,1   Windstil   1015,1 88 - -
05:14 14,0 12,0   Windstil   1015,1 88 - 5
05:19 13,9 11,9   Windstil   1015,1 88 - 9
05:24 13,9 11,9   Windstil   1015,1 88 - 11
05:29 13,9 11,9   Windstil   1015,1 88 - 12
05:34 13,9 12,1   Windstil   1015,1 89 - 14
05:39 14,0 12,2   Windstil   1015,1 89 - 16
05:44 14,0 12,2 1,4 Noorden 1,6 1015,1 89 - 18
05:49 14,1 12,3 1,4 Noorden 3,2 1015,1 89 - 23
05:54 14,2 12,4   Windstil   1015,1 89 - 25
05:59 14,2 12,6   Windstil   1015,1 90 - 32
06:04 14,3 12,7   Windstil 1,6 1015,1 90 - 37
06:09 14,3 12,7 1,4 Noorden 1,6 1015,1 90 - 44
06:14 14,3 12,7   Windstil   1015,1 90 - 46
06:19 14,4 12,8   Windstil 1,6 1015,1 90 - 40
06:24 14,4 12,8   Windstil 1,6 1015,1 90 - 40
06:29 14,6 13,0   Windstil 1,6 1015,1 90 - 49
06:34 14,6 13,0   Windstil   1015,1 90 - 60
06:39 14,7 13,1   Windstil   1015,1 90 - 42
06:44 14,8 13,3   Windstil 1,6 1014,8 91 - 58
06:49 14,8 13,3   Windstil 1,6 1015,1 91 - 95
06:54 14,9 13,4   Windstil   1014,8 91 - 102
06:59 15,1 13,6   Windstil 1,6 1014,8 91 - 100
07:04 15,2 13,7   Windstil   1014,8 91 - 107
07:09 15,3 13,8   Windstil 1,6 1014,8 91 - 77
07:14 15,4 13,9 1,4 Noorden 1,6 1014,8 91 - 107
07:19 15,6 14,1 3,2 Noorden 4,8 1015,1 91 - 163
07:24 15,7 14,2 3,2 Noorden 3,2 1015,1 91 - 54
07:29 15,8 14,3 3,2 NW 4,8 1015,1 91 - 114
07:34 15,9 14,4 1,4 NW 3,2 1015,1 91 - 88
07:39 16,0 14,5   Windstil 3,2 1015,1 91 - 176
07:44 16,1 14,6   Windstil 1,6 1015,1 91 - 202
07:49 16,2 14,7   Windstil 1,6 1015,1 91 - 169
07:54 16,2 14,6   Windstil 1,6 1015,1 90 - 102
07:59 16,3 14,7   Windstil 1,6 1015,1 90 - 86
08:04 16,4 14,8   Windstil 1,6 1015,1 90 - 69
08:09 16,5 14,9   Windstil 1,6 1014,8 90 - 316
08:14 16,6 15,0   Windstil 1,6 1015,1 90 - 269
08:19 16,7 15,1   Windstil 1,6 1015,1 90 - 172
08:24 16,9 15,1   Windstil 1,6 1015,1 89 - 392
08:29 17,0 15,2   Windstil 1,6 1014,8 89 - 146
08:34 17,2 15,2   Windstil 3,2 1014,8 88 - 408
08:39 17,5 15,3   Windstil 1,6 1014,8 87 - 422
08:44 17,7 15,3 3,2 NW 3,2 1014,8 86 - 418
08:49 18,0 15,3 1,4 NW 3,2 1014,8 84 - 445
08:54 19,1 15,8 4,7 Oosten 4,8 1014,8 81 - 471
08:59 19,6 15,9 1,4 Oosten 4,8 1014,8 79 - 483
09:04 19,8 15,7 3,2 ONO 4,8 1014,8 77 - 513
09:09 20,2 15,6 1,4 ONO 4,8 1014,8 75 - 515
09:14 20,4 15,8 1,4 ONO 3,2 1014,8 75 - 132
09:19 20,4 15,8 1,4 ONO 1,6 1014,8 75 - 223
09:24 20,4 16,0 3,2 ONO 3,2 1014,8 76 - 163
09:29 20,5 15,7 3,2 Noorden 3,2 1014,8 74 - 519
09:34 20,5 15,9 4,7 NW 6,4 1014,8 75 - 510
09:39 20,7 16,1 3,2 NW 3,2 1014,8 75 - 482
09:44 20,9 15,9 1,4 NW 4,8 1014,8 73 - 494
09:49 21,1 16,1 1,4 NW 1,6 1014,4 73 - 490
09:54 21,1 16,1 1,4 NW 3,2 1014,8 73 - 462
09:59 21,3 16,3 1,4 NW 4,8 1014,4 73 - 468
10:04 21,3 16,7 1,4 NW 3,2 1014,4 75 - 475
10:09 21,4 16,6 1,4 NNW 3,2 1014,4 74 - 471
10:14 21,8 17,2   Windstil 3,2 1014,4 75 - 450
10:19 21,9 16,8   Windstil 3,2 1014,4 73 - 473
10:24 22,2 16,9 1,4 NW 4,8 1014,4 72 - 490
10:29 22,3 16,6 1,4 WZW 3,2 1014,4 70 - 466
10:34 22,4 16,9   Windstil 4,8 1014,4 71 - 489
10:39 22,5 17,4 3,2 WZW 3,2 1014,4 73 - 554
10:44 22,6 17,3 3,2 WZW 4,8 1014,4 72 - 575
10:49 23,1 17,1 1,4 WZW 6,4 1014,4 69 - 591
10:54 23,2 17,0 3,2 WZW 4,8 1014,4 68 - 622
10:59 23,4 17,6 3,2 WZW 3,2 1014,4 70 - 668
11:04 23,4 17,2 4,7 Noorden 4,8 1014,4 68 - 570
11:09 23,2 17,0 1,4 NW 4,8 1014,4 68 - 624
11:14 23,3 17,1 1,4 NNO 6,4 1014,4 68 - 668
11:19 23,3 17,1 1,4 NNO 4,8 1014,4 68 - 698
11:24 23,6 17,3 1,4 NNO 3,2 1014,4 68 - 594
11:29 23,9 17,6 3,2 ZW 6,4 1014,4 68 - 621
11:34 24,2 17,4 3,2 ZW 3,2 1014,4 66 - 687
11:39 24,0 17,7 6,4 Noorden 6,4 1014,4 68 - 603
11:44 24,0 17,7 3,2 WNW 6,4 1014,4 68 - 624
11:49 24,2 17,7 4,7 WNW 4,8 1014,4 67 - 628
11:54 24,6 17,6 7,9 Noorden 8,0 1014,4 65 - 751
11:59 24,7 17,7 3,2 Westen 6,4 1014,1 65 - 788
12:04 25,1 17,3 1,4 Zuiden 9,7 1014,1 62 - 766
12:09 25,3 17,2   Windstil 6,4 1014,1 61 - 782
12:14 25,4 18,3 7,9 ZW 9,7 1014,1 65 - 791
12:19 25,3 18,0 3,2 ZW 11,3 1014,1 64 - 810
12:24 25,1 17,0 3,2 ZO 6,4 1014,1 61 - 751
12:29 25,2 17,4 6,4 WNW 6,4 1014,1 62 - 552
12:34 25,1 17,3 3,2 NW 4,8 1014,1 62 - 605
12:39 25,1 17,0 1,4 Noorden 6,4 1014,1 61 - 397
12:44 24,9 17,4 4,7 Noorden 4,8 1014,1 63 - 851
12:49 25,7 17,1 1,4 ZZO 8,0 1014,1 59 - 796
12:54 26,1 17,5 4,7 ZZO 9,7 1014,1 59 - 861
12:59 26,1 17,7 3,2 ZZW 8,0 1014,1 60 - 729
13:04 25,9 17,5 4,7 ZO 8,0 1013,8 60 - 865
13:09 26,2 17,6 6,4 ZW 8,0 1013,8 59 - 677
13:14 26,4 18,3 6,4 ZZW 11,3 1013,8 61 - 789
13:19 26,3 17,9 3,2 ZW 11,3 1013,8 60 - 659
13:24 26,2 17,3 4,7 Westen 8,0 1013,8 58 - 571
13:29 26,1 16,9 4,7 WZW 6,4 1013,8 57 - 443
13:34 25,8 18,2 6,4 NO 6,4 1013,8 63 - 673
13:39 25,7 18,6   Windstil 8,0 1013,8 65 - 708
13:44 25,6 19,0 6,4 NW 14,5 1013,8 67 - 457
13:49 25,2 18,9 16,3 NNW 17,7 1014,1 68 - 622
13:54 24,9 19,0 4,7 Noorden 9,7 1013,8 70 - 513
13:59 24,7 18,6 4,7 Noorden 19,3 1014,1 69 - 526
14:04 24,8 18,7 6,4 NW 14,5 1014,1 69 - 589
14:09 24,6 18,5 16,3 Noorden 16,1 1014,1 69 - 696
14:14 24,4 18,3 7,9 Noorden 12,9 1014,1 69 - 849
14:19 24,6 18,1 6,4 NNW 17,7 1014,1 67 - 865
14:24 24,4 17,9 4,7 Noorden 14,5 1014,1 67 - 828
14:29 23,9 17,4 16,3 NNW 17,7 1014,1 67 - 459
14:34 23,9 17,4 4,7 Noorden 14,5 1014,1 67 - 663
14:39 24,0 17,5 9,7 NNW 17,7 1014,1 67 - 838
14:44 23,9 17,4 16,3 WNW 16,1 1014,1 67 - 533
14:49 23,9 17,4 4,7 WNW 14,5 1014,1 67 - 707
14:54 23,8 17,3 4,7 Noorden 14,5 1014,1 67 - 615
14:59 24,0 17,5 6,4 NNW 9,7 1013,8 67 - 617
15:04 24,1 17,6 4,7 NW 11,3 1013,8 67 - 663
15:09 24,1 17,1 6,4 Noorden 14,5 1013,8 65 - 599
15:14 24,1 17,1 4,7 Noorden 12,9 1013,8 65 - 626
15:19 24,2 17,2 16,3 Noorden 17,7 1013,8 65 - 715
15:24 24,3 17,5 3,2 ZO 9,7 1013,4 66 - 707
15:29 24,2 17,4 13,0 Noorden 14,5 1013,4 66 - 759
15:34 24,3 17,8 7,9 Noorden 12,9 1013,4 67 - 749
15:39 24,7 18,2 6,4 NW 9,7 1013,8 67 - 740
15:44 24,5 17,7 7,9 NNW 14,5 1013,8 66 - 729
15:49 24,5 17,7 3,2 NNO 12,9 1013,8 66 - 722
15:54 24,6 17,3 6,4 NNO 16,1 1013,4 64 - 715
15:59 24,4 17,4 3,2 Noorden 14,5 1013,4 65 - 721
16:04 24,4 17,1 6,4 NW 12,9 1013,4 64 - 633
16:09 24,5 17,7 6,4 Noorden 14,5 1013,4 66 - 432
16:14 24,6 18,1 3,2 NNW 11,3 1013,4 67 - 520
16:19 24,6 17,8 7,9 NNO 16,1 1013,4 66 - 747
16:24 24,3 17,8 13,0 WNW 14,5 1013,4 67 - 445
16:29 24,0 17,5 3,2 WNW 12,9 1013,4 67 - 515
16:34 24,1 17,6 3,2 WNW 8,0 1013,4 67 - 512
16:39 24,1 17,3 3,2 NNW 16,1 1013,4 66 - 438
16:44 24,1 17,8 3,2 NNW 8,0 1013,4 68 - 531
16:49 24,1 17,3 6,4 NW 12,9 1013,4 66 - 411
16:54 24,0 17,5 4,7 WNW 9,7 1013,4 67 - 278
16:59 23,9 17,4 3,2 NNW 11,3 1013,4 67 - 364
17:04 23,8 17,3 3,2 NNW 8,0 1013,4 67 - 411
17:09 23,8 17,5 4,7 NNO 12,9 1013,4 68 - 533
17:14 24,0 18,0 3,2 NW 9,7 1013,4 69 - 577
17:19 24,3 17,8 13,0 Noorden 17,7 1013,4 67 - 555
17:24 24,4 17,6 3,2 NNW 14,5 1013,4 66 - 524
17:29 24,7 17,4 13,0 NNO 17,7 1013,1 64 - 527
17:34 24,8 17,5 7,9 Noorden 12,9 1013,1 64 - 504
17:39 24,8 17,3 9,7 Westen 9,7 1013,1 63 - 527
17:44 24,9 17,4 4,7 NNW 8,0 1013,1 63 - 519
17:49 25,0 17,2 6,4 NNO 16,1 1013,1 62 - 510
17:54 24,9 17,1 1,4 NNO 9,7 1013,1 62 - 497
17:59 25,0 17,0 4,7 NNO 11,3 1013,1 61 - 490
18:04 25,0 16,7 11,1 Noorden 16,1 1013,1 60 - 473
18:09 24,9 16,3 6,4 NNO 11,3 1013,1 59 - 459
18:14 24,9 16,9 6,4 Noorden 8,0 1013,1 61 - 448
18:19 24,8 16,2 9,7 NNO 16,1 1013,1 59 - 438
18:24 24,7 16,1 3,2 Noorden 9,7 1013,1 59 - 425
18:29 24,6 16,6 6,4 NO 12,9 1013,1 61 - 424
18:34 24,6 16,3 4,7 Noorden 12,9 1013,1 60 - 439
18:39 24,7 16,1 4,7 WNW 14,5 1013,1 59 - 459
18:44 24,4 15,6 3,2 NW 16,1 1012,8 58 - 357
18:49 24,3 16,0 7,9 NNW 9,7 1013,1 60 - 427
18:54 24,2 15,9 7,9 NNO 14,5 1012,8 60 - 369
18:59 24,2 15,9 7,9 NNO 14,5 1012,8 60 - 153
19:04 23,8 15,8 6,4 Noorden 8,0 1012,8 61 - 285
19:09 23,5 15,3 3,2 NNW 9,7 1012,8 60 - 171
19:14 23,2 15,3 7,9 NW 14,5 1012,8 61 - 123
19:19 22,8 14,6 3,2 NNW 9,7 1012,8 60 - 111
19:24 22,4 14,5 4,7 Noorden 14,5 1013,1 61 - 102
19:29 22,1 14,5 6,4 NO 14,5 1012,8 62 - 95
19:34 21,8 14,2 6,4 Noorden 11,3 1012,8 62 - 113
19:39 21,7 14,1 4,7 NNO 12,9 1012,8 62 - 111
19:44 21,4 14,1 4,7 NNO 6,4 1012,8 63 - 236
19:49 21,6 14,3 3,2 NNO 8,0 1012,4 63 - 223
19:54 21,8 14,4 3,2 NNO 6,4 1012,4 63 - 220
19:59 21,9 14,5 3,2 NNW 11,3 1012,4 63 - 216
20:04 22,0 14,9 4,7 Noorden 14,5 1012,8 64 - 209
20:09 22,1 15,0 13,0 Noorden 16,1 1012,4 64 - 207
20:14 21,9 14,5 4,7 NNO 12,9 1012,4 63 - 190
20:19 21,9 14,3 9,7 Noorden 16,1 1012,4 62 - 172
20:24 21,8 14,4 3,2 NNO 9,7 1012,4 63 - 146
20:29 21,7 15,1 9,7 NNO 17,7 1012,4 66 - 132
20:34 21,6 15,2 3,2 NO 11,3 1012,4 67 - 114
20:39 21,4 15,0 7,9 NNO 14,5 1012,4 67 - 102
20:44 21,3 14,9 6,4 Noorden 12,9 1012,4 67 - 79
Dagelijkse Samenvatting Dinsdag 18 juni 2019
Tijd Temp. ( °C ) Dew pt. ( °C ) Wind ( km/h ) van Windvlaag ( km/h ) Luchtdruk ( hPa ) Humid.( % ) Rainrate ( cm ) Zonneschijn ( W/m2 )
Hoog26,4 19,0 16,3 Noorden ( 252/761 ) 19,3 1016,8 91 - 865
Gemiddeld20,1 15,3 3,1 Windstil #96/249 6,1 1014,5 75 - 420 #187/249
Laag13,9 11,9 -   0,0 1012,4 57 -  
Dagelijkse Tabular details for Dinsdag 18 juni 2019
Tijd Temp. ( °C ) Dew pt. ( °C ) Wind ( km/h ) van Windvlaag ( km/h ) Luchtdruk ( hPa ) Humid.( % ) Rainrate ( cm ) Zonneschijn ( W/m2 )
00:04 16,9 13,6   Windstil   1016,8 81 - -
00:09 16,8 13,5   Windstil   1016,8 81 - -
00:14 16,7 13,4   Windstil   1016,8 81 - -
00:19 16,4 13,3   Windstil   1016,8 82 - -
00:24 16,3 13,2   Windstil   1016,8 82 - -
00:29 16,2 13,3   Windstil   1016,5 83 - -
00:34 16,1 13,2   Windstil   1016,5 83 - -
00:39 16,0 13,1   Windstil   1016,5 83 - -
00:44 16,0 13,3   Windstil   1016,5 84 - -
00:49 16,0 13,3   Windstil   1016,5 84 - -
00:54 15,9 13,2   Windstil   1016,5 84 - -
00:59 15,8 13,1   Windstil   1016,5 84 - -
01:04 15,7 13,0   Windstil   1016,5 84 - -
01:09 15,7 13,2   Windstil   1016,5 85 - -
01:14 15,6 13,1   Windstil   1016,5 85 - -
01:19 15,6 13,1   Windstil   1016,5 85 - -
01:24 15,5 13,0   Windstil   1016,1 85 - -
01:29 15,6 13,1   Windstil   1016,1 85 - -
01:34 15,5 13,0   Windstil   1016,1 85 - -
01:39 15,6 13,1   Windstil   1016,1 85 - -
01:44 15,5 13,0   Windstil   1016,1 85 - -
01:49 15,4 12,9   Windstil   1016,1 85 - -
01:54 15,4 13,1   Windstil   1016,1 86 - -
01:59 15,3 13,0   Windstil   1016,1 86 - -
02:04 15,3 13,0   Windstil   1016,1 86 - -
02:09 15,3 13,0   Windstil   1016,1 86 - -
02:14 15,3 13,0   Windstil   1016,1 86 - -
02:19 15,2 12,9   Windstil   1016,1 86 - -
02:24 15,2 12,9 1,4 Noorden 3,2 1016,1 86 - -
02:29 15,2 12,9 3,2 Noorden 3,2 1015,8 86 - -
02:34 15,2 12,9 1,4 Noorden 3,2 1015,8 86 - -
02:39 15,2 12,9 1,4 Noorden 1,6 1015,8 86 - -
02:44 15,3 13,0   Windstil   1015,8 86 - -
02:49 15,2 12,9   Windstil   1015,8 86 - -
02:54 15,1 12,8   Windstil 1,6 1015,8 86 - -
02:59 15,1 12,8   Windstil   1015,8 86 - -
03:04 15,1 12,8   Windstil 1,6 1015,8 86 - -
03:09 15,0 12,7   Windstil 1,6 1015,8 86 - -
03:14 14,8 12,5   Windstil   1015,8 86 - -
03:19 14,8 12,5   Windstil   1015,8 86 - -
03:24 14,7 12,4   Windstil   1015,8 86 - -
03:29 14,6 12,3   Windstil   1015,8 86 - -
03:34 14,6 12,5   Windstil   1015,5 87 - -
03:39 14,6 12,5   Windstil   1015,5 87 - -
03:44 14,5 12,4   Windstil   1015,8 87 - -
03:49 14,4 12,3   Windstil   1015,5 87 - -
03:54 14,4 12,3   Windstil   1015,5 87 - -
03:59 14,3 12,2   Windstil   1015,5 87 - -
04:04 14,2 12,1   Windstil   1015,5 87 - -
04:09 14,2 12,1   Windstil   1015,5 87 - -
04:14 14,2 12,1   Windstil   1015,5 87 - -
04:19 14,2 12,1   Windstil   1015,5 87 - -
04:24 14,2 12,2   Windstil   1015,5 88 - -
04:29 14,1 12,1   Windstil   1015,1 88 - -
04:34 14,1 12,1   Windstil   1015,1 88 - -
04:39 14,2 12,2   Windstil   1015,1 88 - -
04:44 14,1 12,1   Windstil   1015,1 88 - -
04:49 14,2 12,2 1,4 Noorden 3,2 1015,1 88 - -
04:54 14,1 12,1   Windstil   1015,1 88 - -
04:59 14,1 12,1   Windstil   1015,1 88 - -
05:04 14,1 12,3   Windstil   1015,1 89 - -
05:09 14,1 12,1   Windstil   1015,1 88 - -
05:14 14,0 12,0   Windstil   1015,1 88 - 5
05:19 13,9 11,9   Windstil   1015,1 88 - 9
05:24 13,9 11,9   Windstil   1015,1 88 - 11
05:29 13,9 11,9   Windstil   1015,1 88 - 12
05:34 13,9 12,1   Windstil   1015,1 89 - 14
05:39 14,0 12,2   Windstil   1015,1 89 - 16
05:44 14,0 12,2 1,4 Noorden 1,6 1015,1 89 - 18
05:49 14,1 12,3 1,4 Noorden 3,2 1015,1 89 - 23
05:54 14,2 12,4   Windstil   1015,1 89 - 25
05:59 14,2 12,6   Windstil   1015,1 90 - 32
06:04 14,3 12,7   Windstil 1,6 1015,1 90 - 37
06:09 14,3 12,7 1,4 Noorden 1,6 1015,1 90 - 44
06:14 14,3 12,7   Windstil   1015,1 90 - 46
06:19 14,4 12,8   Windstil 1,6 1015,1 90 - 40
06:24 14,4 12,8   Windstil 1,6 1015,1 90 - 40
06:29 14,6 13,0   Windstil 1,6 1015,1 90 - 49
06:34 14,6 13,0   Windstil   1015,1 90 - 60
06:39 14,7 13,1   Windstil   1015,1 90 - 42
06:44 14,8 13,3   Windstil 1,6 1014,8 91 - 58
06:49 14,8 13,3   Windstil 1,6 1015,1 91 - 95
06:54 14,9 13,4   Windstil   1014,8 91 - 102
06:59 15,1 13,6   Windstil 1,6 1014,8 91 - 100
07:04 15,2 13,7   Windstil   1014,8 91 - 107
07:09 15,3 13,8   Windstil 1,6 1014,8 91 - 77
07:14 15,4 13,9 1,4 Noorden 1,6 1014,8 91 - 107
07:19 15,6 14,1 3,2 Noorden 4,8 1015,1 91 - 163
07:24 15,7 14,2 3,2 Noorden 3,2 1015,1 91 - 54
07:29 15,8 14,3 3,2 NW 4,8 1015,1 91 - 114
07:34 15,9 14,4 1,4 NW 3,2 1015,1 91 - 88
07:39 16,0 14,5   Windstil 3,2 1015,1 91 - 176
07:44 16,1 14,6   Windstil 1,6 1015,1 91 - 202
07:49 16,2 14,7   Windstil 1,6 1015,1 91 - 169
07:54 16,2 14,6   Windstil 1,6 1015,1 90 - 102
07:59 16,3 14,7   Windstil 1,6 1015,1 90 - 86
08:04 16,4 14,8   Windstil 1,6 1015,1 90 - 69
08:09 16,5 14,9   Windstil 1,6 1014,8 90 - 316
08:14 16,6 15,0   Windstil 1,6 1015,1 90 - 269
08:19 16,7 15,1   Windstil 1,6 1015,1 90 - 172
08:24 16,9 15,1   Windstil 1,6 1015,1 89 - 392
08:29 17,0 15,2   Windstil 1,6 1014,8 89 - 146
08:34 17,2 15,2   Windstil 3,2 1014,8 88 - 408
08:39 17,5 15,3   Windstil 1,6 1014,8 87 - 422
08:44 17,7 15,3 3,2 NW 3,2 1014,8 86 - 418
08:49 18,0 15,3 1,4 NW 3,2 1014,8 84 - 445
08:54 19,1 15,8 4,7 Oosten 4,8 1014,8 81 - 471
08:59 19,6 15,9 1,4 Oosten 4,8 1014,8 79 - 483
09:04 19,8 15,7 3,2 ONO 4,8 1014,8 77 - 513
09:09 20,2 15,6 1,4 ONO 4,8 1014,8 75 - 515
09:14 20,4 15,8 1,4 ONO 3,2 1014,8 75 - 132
09:19 20,4 15,8 1,4 ONO 1,6 1014,8 75 - 223
09:24 20,4 16,0 3,2 ONO 3,2 1014,8 76 - 163
09:29 20,5 15,7 3,2 Noorden 3,2 1014,8 74 - 519
09:34 20,5 15,9 4,7 NW 6,4 1014,8 75 - 510
09:39 20,7 16,1 3,2 NW 3,2 1014,8 75 - 482
09:44 20,9 15,9 1,4 NW 4,8 1014,8 73 - 494
09:49 21,1 16,1 1,4 NW 1,6 1014,4 73 - 490
09:54 21,1 16,1 1,4 NW 3,2 1014,8 73 - 462
09:59 21,3 16,3 1,4 NW 4,8 1014,4 73 - 468
10:04 21,3 16,7 1,4 NW 3,2 1014,4 75 - 475
10:09 21,4 16,6 1,4 NNW 3,2 1014,4 74 - 471
10:14 21,8 17,2   Windstil 3,2 1014,4 75 - 450
10:19 21,9 16,8   Windstil 3,2 1014,4 73 - 473
10:24 22,2 16,9 1,4 NW 4,8 1014,4 72 - 490
10:29 22,3 16,6 1,4 WZW 3,2 1014,4 70 - 466
10:34 22,4 16,9   Windstil 4,8 1014,4 71 - 489
10:39 22,5 17,4 3,2 WZW 3,2 1014,4 73 - 554
10:44 22,6 17,3 3,2 WZW 4,8 1014,4 72 - 575
10:49 23,1 17,1 1,4 WZW 6,4 1014,4 69 - 591
10:54 23,2 17,0 3,2 WZW 4,8 1014,4 68 - 622
10:59 23,4 17,6 3,2 WZW 3,2 1014,4 70 - 668
11:04 23,4 17,2 4,7 Noorden 4,8 1014,4 68 - 570
11:09 23,2 17,0 1,4 NW 4,8 1014,4 68 - 624
11:14 23,3 17,1 1,4 NNO 6,4 1014,4 68 - 668
11:19 23,3 17,1 1,4 NNO 4,8 1014,4 68 - 698
11:24 23,6 17,3 1,4 NNO 3,2 1014,4 68 - 594
11:29 23,9 17,6 3,2 ZW 6,4 1014,4 68 - 621
11:34 24,2 17,4 3,2 ZW 3,2 1014,4 66 - 687
11:39 24,0 17,7 6,4 Noorden 6,4 1014,4 68 - 603
11:44 24,0 17,7 3,2 WNW 6,4 1014,4 68 - 624
11:49 24,2 17,7 4,7 WNW 4,8 1014,4 67 - 628
11:54 24,6 17,6 7,9 Noorden 8,0 1014,4 65 - 751
11:59 24,7 17,7 3,2 Westen 6,4 1014,1 65 - 788
12:04 25,1 17,3 1,4 Zuiden 9,7 1014,1 62 - 766
12:09 25,3 17,2   Windstil 6,4 1014,1 61 - 782
12:14 25,4 18,3 7,9 ZW 9,7 1014,1 65 - 791
12:19 25,3 18,0 3,2 ZW 11,3 1014,1 64 - 810
12:24 25,1 17,0 3,2 ZO 6,4 1014,1 61 - 751
12:29 25,2 17,4 6,4 WNW 6,4 1014,1 62 - 552
12:34 25,1 17,3 3,2 NW 4,8 1014,1 62 - 605
12:39 25,1 17,0 1,4 Noorden 6,4 1014,1 61 - 397
12:44 24,9 17,4 4,7 Noorden 4,8 1014,1 63 - 851
12:49 25,7 17,1 1,4 ZZO 8,0 1014,1 59 - 796
12:54 26,1 17,5 4,7 ZZO 9,7 1014,1 59 - 861
12:59 26,1 17,7 3,2 ZZW 8,0 1014,1 60 - 729
13:04 25,9 17,5 4,7 ZO 8,0 1013,8 60 - 865
13:09 26,2 17,6 6,4 ZW 8,0 1013,8 59 - 677
13:14 26,4 18,3 6,4 ZZW 11,3 1013,8 61 - 789
13:19 26,3 17,9 3,2 ZW 11,3 1013,8 60 - 659
13:24 26,2 17,3 4,7 Westen 8,0 1013,8 58 - 571
13:29 26,1 16,9 4,7 WZW 6,4 1013,8 57 - 443
13:34 25,8 18,2 6,4 NO 6,4 1013,8 63 - 673
13:39 25,7 18,6   Windstil 8,0 1013,8 65 - 708
13:44 25,6 19,0 6,4 NW 14,5 1013,8 67 - 457
13:49 25,2 18,9 16,3 NNW 17,7 1014,1 68 - 622
13:54 24,9 19,0 4,7 Noorden 9,7 1013,8 70 - 513
13:59 24,7 18,6 4,7 Noorden 19,3 1014,1 69 - 526
14:04 24,8 18,7 6,4 NW 14,5 1014,1 69 - 589
14:09 24,6 18,5 16,3 Noorden 16,1 1014,1 69 - 696
14:14 24,4 18,3 7,9 Noorden 12,9 1014,1 69 - 849
14:19 24,6 18,1 6,4 NNW 17,7 1014,1 67 - 865
14:24 24,4 17,9 4,7 Noorden 14,5 1014,1 67 - 828
14:29 23,9 17,4 16,3 NNW 17,7 1014,1 67 - 459
14:34 23,9 17,4 4,7 Noorden 14,5 1014,1 67 - 663
14:39 24,0 17,5 9,7 NNW 17,7 1014,1 67 - 838
14:44 23,9 17,4 16,3 WNW 16,1 1014,1 67 - 533
14:49 23,9 17,4 4,7 WNW 14,5 1014,1 67 - 707
14:54 23,8 17,3 4,7 Noorden 14,5 1014,1 67 - 615
14:59 24,0 17,5 6,4 NNW 9,7 1013,8 67 - 617
15:04 24,1 17,6 4,7 NW 11,3 1013,8 67 - 663
15:09 24,1 17,1 6,4 Noorden 14,5 1013,8 65 - 599
15:14 24,1 17,1 4,7 Noorden 12,9 1013,8 65 - 626
15:19 24,2 17,2 16,3 Noorden 17,7 1013,8 65 - 715
15:24 24,3 17,5 3,2 ZO 9,7 1013,4 66 - 707
15:29 24,2 17,4 13,0 Noorden 14,5 1013,4 66 - 759
15:34 24,3 17,8 7,9 Noorden 12,9 1013,4 67 - 749
15:39 24,7 18,2 6,4 NW 9,7 1013,8 67 - 740
15:44 24,5 17,7 7,9 NNW 14,5 1013,8 66 - 729
15:49 24,5 17,7 3,2 NNO 12,9 1013,8 66 - 722
15:54 24,6 17,3 6,4 NNO 16,1 1013,4 64 - 715
15:59 24,4 17,4 3,2 Noorden 14,5 1013,4 65 - 721
16:04 24,4 17,1 6,4 NW 12,9 1013,4 64 - 633
16:09 24,5 17,7 6,4 Noorden 14,5 1013,4 66 - 432
16:14 24,6 18,1 3,2 NNW 11,3 1013,4 67 - 520
16:19 24,6 17,8 7,9 NNO 16,1 1013,4 66 - 747
16:24 24,3 17,8 13,0 WNW 14,5 1013,4 67 - 445
16:29 24,0 17,5 3,2 WNW 12,9 1013,4 67 - 515
16:34 24,1 17,6 3,2 WNW 8,0 1013,4 67 - 512
16:39 24,1 17,3 3,2 NNW 16,1 1013,4 66 - 438
16:44 24,1 17,8 3,2 NNW 8,0 1013,4 68 - 531
16:49 24,1 17,3 6,4 NW 12,9 1013,4 66 - 411
16:54 24,0 17,5 4,7 WNW 9,7 1013,4 67 - 278
16:59 23,9 17,4 3,2 NNW 11,3 1013,4 67 - 364
17:04 23,8 17,3 3,2 NNW 8,0 1013,4 67 - 411
17:09 23,8 17,5 4,7 NNO 12,9 1013,4 68 - 533
17:14 24,0 18,0 3,2 NW 9,7 1013,4 69 - 577
17:19 24,3 17,8 13,0 Noorden 17,7 1013,4 67 - 555
17:24 24,4 17,6 3,2 NNW 14,5 1013,4 66 - 524
17:29 24,7 17,4 13,0 NNO 17,7 1013,1 64 - 527
17:34 24,8 17,5 7,9 Noorden 12,9 1013,1 64 - 504
17:39 24,8 17,3 9,7 Westen 9,7 1013,1 63 - 527
17:44 24,9 17,4 4,7 NNW 8,0 1013,1 63 - 519
17:49 25,0 17,2 6,4 NNO 16,1 1013,1 62 - 510
17:54 24,9 17,1 1,4 NNO 9,7 1013,1 62 - 497
17:59 25,0 17,0 4,7 NNO 11,3 1013,1 61 - 490
18:04 25,0 16,7 11,1 Noorden 16,1 1013,1 60 - 473
18:09 24,9 16,3 6,4 NNO 11,3 1013,1 59 - 459
18:14 24,9 16,9 6,4 Noorden 8,0 1013,1 61 - 448
18:19 24,8 16,2 9,7 NNO 16,1 1013,1 59 - 438
18:24 24,7 16,1 3,2 Noorden 9,7 1013,1 59 - 425
18:29 24,6 16,6 6,4 NO 12,9 1013,1 61 - 424
18:34 24,6 16,3 4,7 Noorden 12,9 1013,1 60 - 439
18:39 24,7 16,1 4,7 WNW 14,5 1013,1 59 - 459
18:44 24,4 15,6 3,2 NW 16,1 1012,8 58 - 357
18:49 24,3 16,0 7,9 NNW 9,7 1013,1 60 - 427
18:54 24,2 15,9 7,9 NNO 14,5 1012,8 60 - 369
18:59 24,2 15,9 7,9 NNO 14,5 1012,8 60 - 153
19:04 23,8 15,8 6,4 Noorden 8,0 1012,8 61 - 285
19:09 23,5 15,3 3,2 NNW 9,7 1012,8 60 - 171
19:14 23,2 15,3 7,9 NW 14,5 1012,8 61 - 123
19:19 22,8 14,6 3,2 NNW 9,7 1012,8 60 - 111
19:24 22,4 14,5 4,7 Noorden 14,5 1013,1 61 - 102
19:29 22,1 14,5 6,4 NO 14,5 1012,8 62 - 95
19:34 21,8 14,2 6,4 Noorden 11,3 1012,8 62 - 113
19:39 21,7 14,1 4,7 NNO 12,9 1012,8 62 - 111
19:44 21,4 14,1 4,7 NNO 6,4 1012,8 63 - 236
19:49 21,6 14,3 3,2 NNO 8,0 1012,4 63 - 223
19:54 21,8 14,4 3,2 NNO 6,4 1012,4 63 - 220
19:59 21,9 14,5 3,2 NNW 11,3 1012,4 63 - 216
20:04 22,0 14,9 4,7 Noorden 14,5 1012,8 64 - 209
20:09 22,1 15,0 13,0 Noorden 16,1 1012,4 64 - 207
20:14 21,9 14,5 4,7 NNO 12,9 1012,4 63 - 190
20:19 21,9 14,3 9,7 Noorden 16,1 1012,4 62 - 172
20:24 21,8 14,4 3,2 NNO 9,7 1012,4 63 - 146
20:29 21,7 15,1 9,7 NNO 17,7 1012,4 66 - 132
20:34 21,6 15,2 3,2 NO 11,3 1012,4 67 - 114
20:39 21,4 15,0 7,9 NNO 14,5 1012,4 67 - 102
20:44 21,3 14,9 6,4 Noorden 12,9 1012,4 67 - 79

Download your copy of this data-set  here

Our weather-data as stored at Weather Underground. Script ontwikkeld door Jim McMurry. Aangepast voor de template door Leuven-Template.eu

U vindt ons ook hier:

Het Weer Aktueel

UK Metoffice

European Weather Network

Weather Underground

AWEKAS

Citizen Weather Observer Program (CWOP)

HAMweather, WeatherForYou, PWS Weather

Apparatuur in gebruik:

Weerstation
Davis Vantage pro 2

Weerprogramma
Meteobridge

Weercomputer
TP-Link TL-WR703N

Webleverancier
Versio

Davis Vantage pro 2

Meteobridge

TP-Link TL-WR703N

Versio